DW1920 Weather Reports


time (UTC)temp
F
wind
direction
speed
knots
gust
knots
rain 1hr
in
rain 24hr
in
rain mn
in
humidity
%
barometer
mb
20171218085000 15 11 5.2 7.0 0.00 0.00 0.00 70 1023.1
20171218084000 15 13 4.3 7.0 0.00 0.00 0.00 69 1023.2
20171218083000 14 17 5.2 7.8 0.00 0.00 0.00 68 1023.3
20171218081959 13 354 5.2 7.0 0.00 0.00 0.00 65 1023.6
20171218081000 13 344 5.2 7.0 0.00 0.00 0.00 64 1023.4
20171218080000 13 357 4.3 7.0 0.00 0.00 0.00 63 1023.5
20171218074959 13 7 5.2 7.0 0.00 0.00 0.00 63 1023.4
20171218074000 14 10 5.2 8.7 0.00 0.00 0.00 63 1023.3
20171218073000 14 9 5.2 7.8 0.00 0.00 0.00 64 1023.4
20171218072000 14 25 4.3 9.6 0.00 0.00 0.00 63 1023.6
20171218071000 14 343 7.0 9.6 0.00 0.00 0.00 64 1023.8
20171218070000 14 345 5.2 9.6 0.00 0.00 0.00 65 1023.9
20171218065000 14 332 6.1 8.7 0.00 0.00 0.00 63 1024.2
20171218063959 14 341 5.2 7.0 0.00 0.00 0.00 61 1024.0
20171218063000 15 351 4.3 7.0 0.00 0.00 0.00 61 1023.8
20171218062000 15 2 3.5 7.8 0.00 0.00 0.00 61 1023.5
20171218061000 14 356 5.2 12.2 0.00 0.00 0.00 62 1023.4
20171218060000 14 338 7.8 12.2 0.00 0.00 0.00 64 1023.3
20171218055000 14 341 7.0 10.4 0.00 0.00 0.00 65 1023.5
20171218054000 14 355 5.2 7.8 0.00 0.00 0.00 65 1023.6
20171218053000 14 4 4.3 12.2 0.00 0.00 0.00 64 1023.5
20171218052000 14 332 7.8 13.0 0.00 0.00 0.00 63 1023.7
20171218051000 15 331 7.0 10.4 0.00 0.00 0.00 63 1023.7
20171218045959 15 341 7.0 12.2 0.00 0.00 0.00 62 1023.7
20171218045000 15 340 5.2 8.7 0.00 0.00 0.00 61 1023.7
20171218043959 15 332 6.1 8.7 0.00 0.00 0.00 62 1023.8
20171218043000 15 349 5.2 7.8 0.00 0.00 0.00 62 1023.8
20171218042000 15 344 4.3 8.7 0.00 0.00 0.00 63 1024.2
20171218041000 15 352 3.5 7.8 0.00 0.00 0.00 64 1024.2
20171218040000 15 352 3.5 7.0 0.00 0.00 0.00 65 1024.3
20171218035000 15 347 4.3 6.1 0.00 0.00 0.00 66 1024.7
20171218034000 15 9 3.5 7.0 0.00 0.00 0.00 66 1024.7
20171218033000 16 357 4.3 7.8 0.00 0.00 0.00 66 1024.6
20171218032000 16 341 5.2 12.2 0.00 0.00 0.00 66 1024.6
20171218031000 16 339 7.0 10.4 0.00 0.00 0.00 66 1024.8
20171218030000 16 329 6.1 8.7 0.00 0.00 0.00 65 1024.6
20171218025000 16 348 5.2 8.7 0.00 0.00 0.00 64 1024.6
20171218023959 16 337 7.8 13.9 0.00 0.00 0.00 64 1024.5
20171218023000 15 310 9.6 13.9 0.00 0.00 0.00 63 1024.6
20171218022000 16 325 7.8 11.3 0.00 0.00 0.00 62 1024.4
20171218021000 16 333 6.1 9.6 0.00 0.00 0.00 62 1024.4
20171218020000 16 346 6.1 8.7 0.00 0.00 0.00 62 1024.6
20171218015000 16 335 4.3 11.3 0.00 0.00 0.00 63 1024.8
20171218014000 16 344 7.0 9.6 0.00 0.00 0.00 62 1025.2
20171218012959 16 338 5.2 9.6 0.00 0.00 0.00 63 1025.0
20171218012000 17 341 6.1 8.7 0.00 0.00 0.00 62 1025.1
20171218011001 17 342 6.1 13.0 0.00 0.00 0.00 61 1024.8
20171218010000 17 345 6.1 10.4 0.00 0.00 0.00 61 1024.9
20171218005000 17 340 6.1 10.4 0.00 0.00 0.00 61 1024.7
20171218004000 17 343 6.1 12.2 0.00 0.00 0.00 61 1024.5
20171218003000 17 341 7.0 13.9 0.00 0.00 0.00 61 1024.5
20171218002000 18 336 7.8 16.5 0.00 0.00 0.00 61 1024.2
20171218001000 18 331 10.4 14.8 0.00 0.00 0.00 59 1024.1
20171218000000 18 330 9.6 17.4 0.00 0.00 0.00 59 1023.9
20171217235001 18 322 6.1 13.9 0.00 0.00 0.00 62 1024.0
20171217234000 18 332 7.0 20.9 0.00 0.00 0.00 60 1023.7
20171217233000 18 327 9.6 20.0 0.00 0.00 0.00 59 1023.7
20171217232000 18 333 12.2 20.0 0.00 0.00 0.00 58 1023.4
20171217231000 19 321 9.6 21.7 0.00 0.00 0.00 58 1023.5
20171217230000 19 335 9.6 20.0 0.00 0.00 0.00 58 1023.5
20171217225000 19 333 10.4 20.0 0.00 0.00 0.00 58 1023.4
20171217224001 19 331 13.9 21.7 0.00 0.00 0.00 56 1023.3
20171217223000 19 326 10.4 19.1 0.00 0.00 0.00 56 1023.2
20171217222000 20 320 10.4 18.2 0.00 0.00 0.00 57 1023.4
20171217221000 20 321 9.6 17.4 0.00 0.00 0.00 55 1023.4
20171217220000 20 312 8.7 14.8 0.00 0.00 0.00 55 1023.3
20171217215000 20 328 10.4 14.8 0.00 0.00 0.00 54 1023.0
20171217214000 21 314 8.7 13.9 0.00 0.00 0.00 54 1023.0
20171217213000 21 306 7.0 16.5 0.00 0.00 0.00 56 1022.9
20171217212000 21 303 9.6 17.4 0.00 0.00 0.00 54 1022.6
20171217211000 21 312 8.7 15.6 0.00 0.00 0.00 53 1022.7
20171217205959 21 303 9.6 16.5 0.00 0.00 0.00 51 1022.5
20171217205000 22 326 8.7 13.9 0.00 0.00 0.00 52 1022.5
20171217204000 22 313 7.0 22.6 0.00 0.00 0.00 51 1022.3
20171217203000 22 326 13.9 20.9 0.00 0.00 0.00 47 1022.2
20171217202001 22 322 9.6 24.3 0.00 0.00 0.00 49 1022.0
20171217201001 23 325 11.3 20.9 0.00 0.00 0.00 50 1022.0
20171217200000 23 312 8.7 19.1 0.00 0.00 0.00 48 1022.1
20171217195000 23 318 11.3 22.6 0.00 0.00 0.00 48 1022.2
20171217194000 23 306 14.8 20.9 0.00 0.00 0.00 47 1022.1
20171217193000 23 304 10.4 21.7 0.00 0.00 0.00 50 1022.0
20171217192001 23 329 8.7 22.6 0.00 0.00 0.00 46 1021.9
20171217191000 24 314 12.2 19.1 0.00 0.00 0.00 48 1021.7
20171217190000 24 300 12.2 19.1 0.00 0.00 0.00 47 1021.7
20171217185000 24 329 10.4 23.5 0.00 0.00 0.00 49 1021.8
20171217184000 24 305 10.4 20.9 0.00 0.00 0.00 48 1021.5
20171217183000 23 318 11.3 16.5 0.00 0.00 0.00 50 1021.8
20171217182000 23 322 10.4 19.1 0.00 0.00 0.00 50 1021.9
20171217181000 24 298 13.0 19.1 0.00 0.00 0.00 50 1021.8
20171217180000 23 283 10.4 17.4 0.00 0.00 0.00 52 1022.0
20171217175000 23 293 7.8 15.6 0.00 0.00 0.00 53 1022.1
20171217174001 23 297 8.7 15.6 0.00 0.00 0.00 54 1022.1
20171217173000 23 332 5.2 13.0 0.00 0.00 0.00 53 1022.0
20171217172000 24 332 10.4 16.5 0.00 0.00 0.00 54 1022.1
20171217171000 24 314 9.6 14.8 0.00 0.00 0.00 55 1022.1
20171217170000 24 318 9.6 14.8 0.00 0.00 0.00 55 1022.1
20171217165001 24 294 10.4 15.6 0.00 0.00 0.00 53 1021.9
20171217164000 24 311 7.8 13.9 0.00 0.00 0.00 54 1022.1
20171217163000 24 297 7.0 12.2 0.00 0.00 0.00 56 1022.2
20171217162001 23 299 9.6 14.8 0.00 0.00 0.00 54 1022.1
20171217161000 23 309 7.0 10.4 0.00 0.00 0.00 57 1022.3
20171217160000 23 288 8.7 13.9 0.00 0.00 0.00 54 1022.5
20171217155001 23 305 7.8 10.4 0.00 0.00 0.00 56 1022.8
20171217154000 23 313 7.8 13.9 0.00 0.00 0.00 57 1022.8
20171217153000 22 314 8.7 12.2 0.00 0.00 0.00 58 1022.9
20171217152000 22 302 7.8 13.9 0.00 0.00 0.00 57 1023.0
20171217151000 22 328 9.6 15.6 0.00 0.00 0.00 57 1023.1
20171217150000 22 331 10.4 17.4 0.00 0.00 0.00 57 1023.3
20171217145000 22 317 8.7 13.9 0.00 0.00 0.00 59 1022.9
20171217144000 21 332 7.8 13.9 0.00 0.00 0.00 62 1023.0
20171217143001 21 337 5.2 14.8 0.00 0.00 0.00 62 1023.3
20171217142000 20 342 3.5 12.2 0.00 0.00 0.00 65 1023.0
20171217141000 19 336 2.6 11.3 0.00 0.00 0.00 66 1022.9
20171217140000 19 336 4.3 9.6 0.00 0.00 0.00 66 1022.7
20171217135000 18 1 3.5 14.8 0.00 0.00 0.00 69 1022.6
20171217134000 18 345 5.2 12.2 0.00 0.00 0.00 70 1022.7
20171217133000 18 307 7.0 13.0 0.00 0.00 0.00 70 1022.8
20171217132000 18 310 6.1 13.0 0.00 0.00 0.00 71 1023.0
20171217131001 18 308 7.0 12.2 0.00 0.00 0.00 70 1023.2
20171217130000 18 318 8.7 13.9 0.00 0.00 0.00 70 1023.0
20171217125000 18 318 7.8 14.8 0.00 0.00 0.00 71 1023.0
20171217124000 17 309 8.7 14.8 0.00 0.00 0.00 72 1022.8
20171217123000 17 319 7.8 14.8 0.00 0.00 0.00 72 1022.8
20171217122000 17 316 8.7 14.8 0.00 0.00 0.00 73 1022.8
20171217121000 17 297 5.2 10.4 0.00 0.00 0.00 72 1022.9
20171217120001 18 325 4.3 13.0 0.00 0.00 0.00 73 1022.7
20171217115000 18 330 7.0 15.6 0.00 0.00 0.00 72 1022.7
20171217114000 18 307 8.7 21.7 0.00 0.00 0.00 72 1022.4
20171217113001 18 309 13.0 24.3 0.00 0.00 0.00 72 1022.3
20171217112000 18 322 12.2 20.9 0.00 0.00 0.00 72 1022.0
20171217111000 18 330 13.0 20.9 0.00 0.00 0.00 73 1022.0
20171217110000 18 325 12.2 19.1 0.00 0.00 0.00 72 1021.9
20171217105000 18 323 13.0 20.9 0.00 0.00 0.00 71 1021.7
20171217104001 18 322 11.3 20.0 0.00 0.00 0.00 71 1021.5
20171217103000 18 321 12.2 23.5 0.00 0.00 0.00 72 1021.4
20171217102000 18 319 13.9 20.9 0.00 0.00 0.00 71 1021.1
20171217101000 18 318 14.8 22.6 0.00 0.00 0.00 72 1021.1
20171217100001 18 321 12.2 20.9 0.00 0.00 0.00 73 1021.0
20171217095001 18 321 13.0 17.4 0.00 0.00 0.00 73 1021.1
20171217094000 18 323 11.3 18.2 0.00 0.00 0.00 73 1020.9
20171217093001 18 319 10.4 17.4 0.00 0.00 0.00 74 1020.7
20171217092008 18 324 9.6 19.1 0.00 0.00 0.00 73 1020.8
20171217091000 18 330 10.4 18.2 0.00 0.00 0.00 72 1020.7
20171217090001 18 320 12.2 18.2 0.00 0.00 0.00 72 1020.8